Regional Weather Roundup
Issued by NWS Grand Forks, ND

Home | Current Version | Previous Version | Graphics & Text | Print | Product List | Glossary On
Versions: 1 2 3 4 5 6 7 8 9 10 11 12 13 14 15 16 17 18 19 20 21 22 23 24 25 26 27 28 29 30 31 32 33 34 35 36 37 38 39 40 41 42 43 44 45 46 47 48 49 50
000
ASUS43 KFGF 310831
RWRFGF
PRAIRIE TO PINES  WEATHER ROUNDUP
NATIONAL WEATHER SERVICE EASTERN NORTH DAKOTA/GRAND FORKS ND
300 AM CDT FRI JUL 31 2015

 **SATELLITE DATA USED TO AUGMENT SKY COVER AT AUTOMATED STATIONS**
 *****  WEATHER ACROSS EASTERN NORTH DAKOTA  *****

CITY           SKY/WX    TMP DP  RH WIND       PRES   REMARKS
GRAND FORKS    CLEAR     56  51  84 W8        30.02S
GRAND FRKS AFB CLEAR     60  51  73 NW8       30.03S
GRAND FRKS NWS   N/A     57 N/A N/A W9          N/A
DEVILS LAKE    CLEAR     61  48  63 W9        30.07S
FARGO          CLEAR     58  53  84 W8        30.05S
WAHPETON ARPT  SUNNY     52  50  93 W5        30.09R
$$

 ***** WEATHER ACROSS CENTRAL AND WESTERN NORTH DAKOTA  *****

CITY           SKY/WX    TMP DP  RH WIND       PRES   REMARKS
BISMARCK       CLEAR     57  52  83 SW3       30.17S
MINOT          CLEAR     57  48  72 SW12      30.12S
JAMESTOWN      CLEAR     59  50  72 W7        30.12R
MINOT AFB      CLEAR     53  51  95 W9        30.11S
GARRISON         N/A     56  52  86 W5        30.16S
WILLISTON      CLEAR     55  50  83 W3        30.17S
DICKINSON      CLEAR     51  45  79 S6        30.19F
HETTINGER      CLEAR     50  46  86 CALM      30.22F
$$

 *****  OTHER AIRPORT OBSERVATIONS IN OUR AREA  *****

CITY           SKY/WX    TMP DP  RH WIND       PRES   REMARKS
WALHALLA       FAIR      61  50  67 MISG      30.02R
GRAFTON AIRPOR FAIR      61  54  77 W12       30.02S
VALLEY CITY AR FAIR      57  54  88 W9        30.11R
CANDO          FAIR      52  50  93 W6        30.09R
CAVALIER APRT  FAIR      57  50  77 W8        30.02R
GWINNER        FAIR      61  54  77 W9        30.12R
SHEYENNE NWR     N/A     56  53  89 W5        29.95
ROLLA          FAIR      55  50  82 W8        30.10R
 ***** THE ABOVE OBSERVATIONS ARE NON NWS ARE NOT QUALITY
       CONTROLLED AND MAY MIS-REPORT RAIN FOR SNOW...
$$

  *****  WEATHER ACROSS NORTHERN MINNESOTA  *****

CITY           SKY/WX    TMP DP  RH WIND       PRES   REMARKS
FLAG ISLAND    CLEAR     61  55  82 W15       29.91R
WARROAD        CLEAR     57  54  88 W8        29.95S
ROSEAU         CLEAR     57  52  82 W6        29.96S
HALLOCK        CLEAR     54  52  94 W7        29.99S
THF RVR FALLS  CLEAR     55  50  82 W7        30.01S
BAUDETTE       MOCLDY    59  52  77 W8        29.92F
WASKISH        CLEAR     64  55  72 W14G21    29.95S
CROOKSTON      CLEAR     55  52  88 W7        30.03S
$$
  *****  WEATHER ACROSS CENTRAL AND WEST MINNESOTA  *****

CITY           SKY/WX    TMP DP  RH WIND       PRES   REMARKS
FOSSTON        CLEAR     57  50  77 W8        30.03R
BEMIDJI        CLEAR     60  50  69 W9        30.00R
PARK RAPIDS    CLEAR     57  50  77 W7        30.03R
ELBOW LAKE     FAIR      56  54  91 W6        30.08R
WADENA         CLEAR     57  50  77 W7        30.05S
DETROIT LAKES  CLEAR     63  50  63 NW10      30.06S
MOORHEAD       CLEAR     57  54  88 SW5       30.07R
FERGUS FALLS   CLEAR     57  55  94 W3        30.08R
MORRIS MN      CLEAR     57  55  94 W5        30.08S
STAPLES        CLEAR     57  50  77 W8        30.04S
$$
  *****  WEATHER ELSEWHERE ACROSS MINNESOTA  *****

CITY           SKY/WX    TMP DP  RH WIND       PRES   REMARKS
DULUTH         PTCLDY    63  54  72 W8        29.93S
INTRNTL FALLS  CLEAR     57  55  93 W6        29.91R
ELY            CLEAR     57  54  88 W3        29.90R
CLOQUET        PTCLDY    64  52  63 W8        29.95S
WHEATON        CLEAR     57  54  88 W6        30.11R
BRAINERD       FAIR      66  51  58 W8        30.02S
HIBBING        CLEAR     62  53  72 W7        29.93S
ALEXANDRIA     CLEAR     61  56  83 W5        30.09R
SAINT CLOUD    CLEAR     62  56  80 NW7       30.04R
MINNEAPOLIS    CLEAR     70  60  70 W7        30.02S
$$

  *****  WEATHER ACROSS SOUTH DAKOTA  *****

CITY           SKY/WX    TMP DP  RH WIND       PRES   REMARKS
SIOUX FALLS    CLEAR     64  59  83 CALM      30.14S
BROOKINGS      MOCLDY    63  57  82 S3        30.16S
WATERTOWN      PTCLDY    62  54  74 CALM      30.14S
HURON          CLEAR     63  60  90 CALM      30.12F
SISSETON         N/A     62  52  69 W7        30.10R
ABERDEEN       CLEAR     54  51  90 W5        30.14R
MITCHELL       CLEAR     64  59  83 E3        30.14S
PIERRE         CLEAR     62  53  72 NE8       30.14S
MOBRIDGE       CLEAR     57  54  89 CALM      30.15S
RAPID CITY     CLEAR     58  51  78 N7        30.23R
$$

  *****  SOME WEATHER IN NEARBY STATES *****

CITY           SKY/WX    TMP DP  RH WIND       PRES   REMARKS
GLASGOW MT     CLEAR     63  50  62 NE9       30.16S
GREAT FALLS MT CLEAR     62  42  47 SW8       30.18S
CHEYENNE WY    CLEAR     59  53  80 W3        30.39F
SCOTTSBLUFF NE CLEAR     63  59  87 E6        30.27S
OMAHA NE       PTCLDY    72  66  81 CALM      30.14S
DES MOINES IA  PTCLDY    71  64  78 SW5       30.11F
DAVENPORT IA   CLEAR     67  64  90 W5        30.09S
CHICAGO IL     CLEAR     71  58  63 W7        30.03S
EAU CLAIRE WI  CLEAR     62  57  83 W8        29.98S
LA CROSSE WI   CLEAR     67  61  81 CALM      30.01S
$$

  *****  SOME NATIONAL WEATHER *****

CITY           SKY/WX    TMP DP  RH WIND       PRES   REMARKS
LA GUARDIA NY  PTCLDY    76  66  71 NW8       29.83R
RALEIGH NC     MOCLDY    77  66  68 N5        29.91S
ATLANTA GA     CLEAR     74  67  78 NW6       29.95S
NEW ORLEANS LA CLOUDY    80  73  79 NW6       29.94S
OKLAHOMA CITY  PTCLDY    78  74  87 CALM      30.13F
ALBUQUERQUE NM LGT RAIN  70  60  70 NE8       30.36S
SALT LAKE CITY PTCLDY    68  35  29 SE5       30.22S
LOS ANGELES CA PTCLDY    70  65  84 SW5       30.02F
BOISE ID       CLEAR     74  35  24 SE10      30.12S
SEATTLE WA     CLEAR     75  49  39 N9        30.05S
$$

*** WEATHER ACROSS MANITOBA...SASKATCHEWAN AND ONTARIO ***
                ***ONTARIO***

CITY           SKY/WX    TMP DP  RH WIND       PRES   REMARKS
GERALDTON      MOCLDY    59  57  94 W5        29.70F
THUNDER BAY    PTCLDY    59  55  88 W12       29.79F
SIOUX LOOKOUT  PTCLDY    59  55  88 W7        29.82S
TORONTO        CLEAR     64  54  68 NW6       29.88S
BIG TROUT LK   CLOUDY    57  50  77 NW13G24   29.63S
PICKLE LAKE    NOT AVBL
DRYDEN         PTCLDY    55  54  94 W10       29.85S
KENORA         CLEAR     57  55  94 NW7       29.90
$$
                *** MANITOBA***

CITY           SKY/WX    TMP DP  RH WIND       PRES   REMARKS
BRANDON        CLEAR     50  50 100 W9        30.05S
DAUPHIN        CLEAR     57  54  88 W10G17    29.99S
ISLAND LAKE    PTCLDY    61  55  82 NW5       29.77S
PILOT MOUND      N/A     57  50  77 W6          N/A
THE PAS        MOCLDY    61  55  82 W12       29.94R
THOMPSON       PTCLDY    54  52  94 NW2       29.80S
WINNIPEG       CLEAR     57  54  88 W10       29.96S
LYNN LAKE      PTCLDY    55  54  94 W7        29.87S
CHURCHILL      CLOUDY    54  52  94 N12       29.67R
GILLAM         PTCLDY    61  54  77 NW14G21   29.70S
$$
                ***SASKATCHEWAN***

CITY           SKY/WX    TMP DP  RH WIND       PRES   REMARKS
ESTEVAN        CLEAR     50  48  93 SW5       30.15R
KINDERSLEY     PTCLDY    52  45  76 S5        30.18R
LLOYDMINSTER   PTCLDY    50  45  81 W7        30.14S
PRINCE ALBERT  PTCLDY    50  48  93 W6        30.08R
REGINA         CLEAR     52  50  93 NW5       30.14S
YORKTON        CLEAR     55  52  88 W10       30.06S
N. BATTLEFORD  CLEAR     46  45  93 W3        30.16R
LA RONGE       NOT AVBL
SASKATOON      PTCLDY    48  46  93 W9        30.14S
SWIFT CURRENT  CLEAR     57  50  77 SE5       30.18S
$$
NOTE: THESE ARE AUTOMATED STATIONS WITH LIMITED QUALITY CONTROL
      "FAIR" INDICATES FEW OR NO CLOUDS BELOW 12,000 FEET WITH NO
      SIGNIFICANT WEATHER AND/OR OBSTRUCTIONS TO VISIBILITY.
      SKY/WX - SKY CONDITION AND SIGNIFICANT WEATHER.
      TMP - AIR TEMPERATURE.    DP   - DEWPOINT TEMPERATURE.
      RH  - RELATIVE HUMIDITY.  PRES - PRESSURE.
      HX  - HEAT INDEX.         WCI  - WIND CHILL INDEX.
$



USA.gov is the U.S. government's official web portal to all federal, state and local government web resources and services.